Wind_Gust
16 14 12 10 11 11 10 9 10 10 10 8 10 11 9 8 7 8 7 7 8 8 7 7 6 7 7 7 7 6 5 5 4 6 6 7 7 6 5 7 8 4 5 5 6 8 8 9 9 8 8 10 9 8 9 9 7 8 8 9 9 8 10 8 8 7 5 4 4 7 5 8 9 8 8 7 6 7 5 6 7 7 6 5 4
16 13 8 12 11 10 9 8 10 11 10 9 9 10 10 9 9 7 7 6 7 9 8 6 6 7 7 7 7 7 6 5 4 5 7 7 6 5 6 6 7 6 5 6 5 6 7 9 8 9 8 10 10 10 9 9 10 10 9 11 10 10 7 9 6 8 11 5 5 4 7 6 9 6 9 10 8 6 7 5 4 5 5 6 6
10 9 9 9 10 11 11 10 9 9 10 9 8 8 9 9 9 11 9 7 4 6 8 7 8 7 7 6 7 6 5 5 5 6 6 6 7 5 6 6 4 4 6 6 6 6 7 8 8 8 8 10 10 9 9 9 9 12 11 10 12 10 10 8 10 6 10 11 6 7 8 8 6 7 7 6 6 6 7 5 5 6 6 6 9
12 11 10 9 10 11 10 10 10 9 10 8 9 8 9 8 6 8 8 7 8 5 5 8 7 7 6 6 7 6 5 4 5 5 6 6 6 6 5 6 7 5 5 6 6 6 7 8 7 8 8 9 9 9 8 8 10 10 10 8 9 12 10 8 7 10 9 12 9 12 9 9 6 6 7 7 8 8 7 7 7 9 9 9 10
11 10 10 11 9 10 8 7 10 10 10 9 7 6 6 6 4 7 8 6 6 7 5 5 6 5 6 5 4 5 4 4 4 4 4 5 7 6 5 6 6 5 5 3 5 7 6 6 8 9 8 8 6 7 9 10 10 10 11 11 11 10 9 10 8 8 11 12 9 5 5 6 6 6 7 11 8 10 9 10 9 10 11 10 11
16 14 10 12 10 11 10 9 10 11 11 10 9 7 7 6 6 5 3 8 5 5 8 5 5 4 4 4 4 3 3 3 3 4 5 5 6 6 6 5 4 4 4 5 5 7 7 7 7 9 9 11 10 7 8 9 9 10 11 11 10 9 10 9 7 7 11 11 11 10 4 10 6 6 6 8 13 11 10 9 8 8 10 11 10
17 17 17 14 12 9 10 11 11 11 11 11 11 10 9 8 7 5 2 1 5 6 5 5 3 4 4 4 3 3 3 2 3 3 3 4 5 6 6 5 4 3 2 4 3 3 5 10 8 7 9 9 11 12 11 8 10 10 10 9 8 9 9 9 8 8 9 9 5 6 9 4 6 8 5 6 7 10 15 10 8 6 7 8 8
13 11 9 12 12 10 8 9 11 11 11 13 12 11 11 11 11 9 4 3 3 3 2 4 3 2 4 3 3 4 3 2 1 2 3 4 4 3 4 5 5 3 1 2 3 3 3 3 7 9 8 8 7 7 8 11 8 7 7 9 10 11 11 10 9 9 9 9 8 9 7 8 6 6 6 8 8 5 8 9 15 11 7 7 6
14 13 13 14 13 12 11 10 10 13 12 11 11 12 13 11 10 9 7 6 6 3 2 2 2 2 1 1 2 2 3 3 4 4 5 4 4 5 5 5 5 5 4 3 2 3 4 3 3 4 6 8 8 6 5 3 10 11 8 9 10 10 9 9 10 9 7 8 7 5 9 8 9 11 11 11 16 18 13 7 9 8 10 10 6
15 15 16 14 11 13 13 12 13 12 12 12 9 10 10 11 11 9 7 8 8 8 8 6 4 4 5 3 2 2 3 3 4 7 5 4 5 4 6 5 6 6 6 4 2 2 3 4 4 5 4 6 8 9 10 8 7 5 11 14 13 11 11 11 10 11 11 11 11 12 11 12 13 14 14 12 8 8 10 11 14 9 8 8 5
20 19 17 15 15 14 15 14 13 14 11 11 9 9 9 9 9 9 7 9 11 11 11 11 8 6 5 6 6 4 4 5 4 3 4 3 4 4 4 6 5 7 6 6 7 6 4 5 6 5 5 6 7 8 10 9 10 8 9 9 10 18 16 11 11 11 14 14 10 10 13 14 13 12 12 12 10 15 15 14 14 14 14 13 10
22 21 18 19 19 19 17 17 18 16 16 14 12 11 12 13 12 11 11 12 10 10 13 10 9 9 9 8 8 8 8 9 11 10 8 4 3 4 3 2 2 3 4 6 7 7 7 7 6 6 6 8 7 7 7 6 8 8 10 12 10 8 5 12 14 12 10 12 11 15 13 16 13 13 12 12 14 11 11 13 15 15 14 11 11
24 23 20 20 19 18 18 19 17 18 15 13 12 14 16 17 15 14 13 10 12 16 12 13 13 12 13 11 10 9 9 11 12 12 13 13 9 5 3 5 4 4 4 5 5 7 7 7 7 8 8 7 9 8 8 8 3 2 4 7 7 8 7 6 5 11 15 14 16 14 17 14 12 16 17 19 15 17 13 13 12 13 13 12 10
23 21 21 20 19 18 17 18 18 15 14 14 15 16 17 15 12 12 12 15 15 14 14 15 14 14 13 12 12 13 13 12 13 13 13 14 14 10 7 6 5 6 7 8 7 7 8 8 9 10 8 8 9 10 9 9 8 6 6 7 9 8 5 7 7 7 10 14 14 17 15 11 19 18 16 15 20 19 19 16 13 13 12 10 7
23 20 20 18 18 17 17 18 17 16 16 15 17 17 15 13 15 13 13 14 14 14 13 13 13 13 14 12 13 14 16 18 18 16 13 11 11 6 8 9 9 8 8 6 7 8 9 9 7 9 8 8 10 10 11 11 10 9 8 9 9 9 8 10 11 11 11 12 13 14 12 16 14 11 15 15 15 14 14 15 15 11 13 10 9
21 19 20 18 17 16 17 17 16 16 16 17 18 17 15 15 14 12 12 12 11 10 12 12 14 13 12 13 13 15 15 19 19 19 18 14 10 10 9 8 8 8 10 8 8 9 8 8 8 9 9 10 10 12 11 9 9 10 11 10 9 7 7 4 3 5 7 8 9 10 10 14 10 18 20 17 14 15 16 17 16 15 15 11 7
19 17 17 16 15 14 14 15 15 15 15 17 17 15 15 15 14 12 13 13 13 14 11 10 10 11 13 13 14 12 13 15 18 18 18 17 12 13 11 9 8 9 10 9 8 7 7 7 8 10 9 11 10 10 11 8 8 9 11 11 9 7 9 5 5 7 5 6 6 6 7 10 13 16 15 15 18 18 20 18 14 15 17 11 8
16 16 15 14 14 13 12 13 14 14 15 15 13 12 11 10 12 11 12 12 13 11 9 10 10 12 13 13 12 11 11 12 15 16 16 15 10 11 11 11 10 10 11 11 9 9 9 9 9 10 11 13 9 10 12 12 11 12 11 12 11 11 11 7 5 8 9 12 14 13 11 10 14 15 16 19 18 15 22 21 18 16 15 14 13
13 14 14 12 12 12 12 13 13 13 14 12 11 11 10 10 7 8 10 9 10 8 10 11 10 10 11 10 13 14 12 11 13 14 15 15 15 11 10 9 11 12 11 13 12 10 12 10 10 10 11 12 11 12 15 14 13 13 15 11 12 13 18 9 9 8 8 12 15 15 14 11 13 14 12 15 15 8 11 17 17 17 16 12 12
10 11 12 12 12 12 12 13 13 14 13 11 10 10 8 9 10 9 9 9 10 10 11 12 13 12 11 11 12 11 11 11 13 15 13 12 13 13 10 9 11 13 12 11 14 14 12 12 12 11 14 14 14 13 13 15 14 13 12 14 13 18 8 9 10 10 8 8 8 8 12 10 9 11 11 10 8 4 8 13 17 15 16 16 15
9 10 12 13 12 12 12 12 13 12 11 11 10 11 10 10 10 11 11 11 10 12 12 11 12 12 12 12 12 12 13 14 12 13 13 13 12 10 9 9 10 12 13 13 11 13 15 14 13 11 13 15 16 16 10 12 12 12 12 14 17 10 11 10 11 8 11 11 11 11 10 10 9 10 12 11 8 6 6 6 7 9 15 15 12
8 9 11 12 11 11 11 10 10 11 12 12 13 12 10 10 11 11 12 13 14 14 12 12 12 11 10 10 11 11 11 11 14 14 14 13 12 10 11 11 13 14 14 14 14 12 13 14 14 13 13 12 12 14 13 10 10 11 14 11 8 12 11 11 12 10 11 11 11 10 11 12 11 10 8 8 8 9 9 9 9 9 7 10 15
8 9 10 10 10 10 10 10 10 9 9 9 10 11 10 11 11 12 12 12 12 12 12 12 12 13 12 11 9 10 11 11 13 15 15 17 13 7 5 8 12 13 13 15 16 17 12 12 13 13 14 12 11 13 13 12 8 14 15 14 11 12 11 12 13 13 13 12 12 12 11 10 10 10 10 11 10 11 12 11 10 9 10 9 10
8 10 10 9 10 10 9 9 8 7 8 8 8 9 9 9 9 10 10 10 11 11 12 11 11 12 14 15 13 12 11 12 11 14 14 15 16 15 8 4 6 11 13 15 15 17 17 14 13 14 15 15 12 9 11 9 13 12 14 14 13 10 11 11 13 15 13 13 14 13 12 9 11 13 12 12 11 11 11 11 10 10 12 11 11
10 10 9 8 9 8 9 10 10 9 10 10 11 11 10 9 11 9 9 9 9 10 10 10 11 11 12 14 15 15 15 15 15 15 16 15 15 15 17 16 9 5 11 13 13 15 13 16 18 17 16 17 17 12 8 10 13 11 11 12 11 12 13 14 15 14 15 16 16 13 13 13 13 13 14 15 14 13 14 11 9 11 11 12 11
10 9 8 7 7 7 8 8 7 7 6 6 5 4 4 5 6 6 5 5 4 5 7 7 7 8 9 10 11 12 13 13 14 14 13 13 12 14 16 16 16 13 10 13 13 17 18 19 19 19 17 17 17 13 12 14 6 9 10 10 12 13 14 14 14 17 18 18 19 22 19 18 17 16 16 16 17 16 15 13 13 11 12 12 10
9 8 8 7 6 6 7 7 7 7 6 7 6 6 5 6 6 7 7 7 6 6 6 7 8 9 10 10 11 11 12 13 14 14 12 13 13 14 16 19 15 14 15 12 8 11 13 11 11 10 10 13 12 9 9 7 7 7 7 9 10 11 11 13 15 15 11 13 12 14 12 12 14 16 15 15 15 11 12 14 14 11 12 10 9
8 6 6 5 6 6 7 6 7 8 7 6 8 8 7 4 7 8 8 7 7 8 7 8 9 9 10 10 10 11 12 12 13 14 14 14 16 15 14 14 14 13 16 16 15 15 15 7 9 10 8 7 7 6 5 6 7 7 8 10 10 9 10 12 11 15 17 19 19 19 18 20 19 15 14 14 15 13 12 13 13 11 10 10 9
6 6 6 7 8 7 7 7 7 8 9 10 9 4 5 7 6 9 7 6 7 7 8 9 10 9 8 9 10 11 10 11 13 8 15 12 19 18 17 18 17 17 12 11 17 17 13 13 10 9 8 7 6 7 6 5 5 6 9 10 11 13 15 17 20 20 21 21 23 23 21 19 19 17 15 15 14 13 10 12 10 14 8 7 8
5 4 3 4 4 5 6 6 5 5 6 6 9 12 4 5 6 5 10 9 10 10 8 10 10 9 8 11 9 12 13 15 12 15 16 18 19 20 18 17 17 19 19 19 14 15 11 9 9 9 8 6 8 7 7 8 7 7 7 6 11 13 13 14 16 19 18 20 22 23 22 20 19 18 16 16 12 11 10 11 11 10 10 8 9
4 3 3 2 2 2 2 4 4 4 4 4 6 7 14 12 4 9 10 11 11 12 12 13 14 13 11 11 11 13 15 16 16 17 17 18 20 20 22 21 18 18 17 15 10 10 11 11 11 9 9 8 7 8 7 8 8 9 9 9 10 13 12 13 16 17 17 17 17 18 19 19 19 17 16 15 15 11 10 7 9 9 10 10 9
9 7 6 6 8 8 8 7 8 9 9 8 8 9 9 15 18 4 7 11 10 11 12 12 13 12 14 15 12 10 12 13 15 16 18 20 20 19 20 19 20 19 19 10 11 11 11 12 11 11 9 8 10 6 6 7 8 10 11 11 10 10 16 16 13 15 18 18 20 20 19 18 17 13 13 12 12 11 11 9 9 9 7 6 7
8 7 6 6 6 7 8 8 8 7 8 10 11 8 9 9 13 22 11 5 10 12 11 11 11 12 13 14 15 13 14 15 17 17 18 20 20 19 18 19 18 18 10 6 11 12 10 10 11 9 8 10 9 8 8 9 9 8 9 11 13 9 6 8 12 18 18 18 18 17 16 16 14 13 11 11 13 12 10 10 8 7 9 8 5
5 5 4 3 7 8 8 7 7 8 7 6 7 8 8 7 11 10 18 22 12 5 6 9 12 14 14 14 13 13 14 15 16 16 16 16 17 18 16 17 13 9 9 11 8 11 9 8 9 9 9 7 7 5 5 7 7 8 7 7 8 11 13 12 12 9 11 14 15 15 14 14 14 16 13 11 9 11 11 10 10 10 8 8 8
7 7 7 6 7 7 7 7 8 8 8 9 10 9 10 10 7 10 13 14 17 19 19 17 13 14 19 14 14 15 15 17 17 17 16 16 15 15 12 12 11 6 5 8 9 9 10 10 10 10 8 7 7 6 7 8 9 10 12 13 12 11 10 13 15 13 11 9 11 12 13 14 13 13 16 15 12 12 11 10 9 9 9 6 6
6 7 7 7 9 8 8 8 8 8 8 9 8 7 7 7 9 10 9 9 11 13 14 14 13 11 16 14 14 15 17 17 17 16 15 14 14 8 7 9 9 9 7 8 9 10 8 9 8 8 7 6 7 8 9 10 10 11 12 16 17 17 15 13 11 12 11 12 10 11 10 10 11 12 11 12 13 13 11 11 10 8 7 7 6
5 6 8 7 7 7 7 7 7 8 6 6 8 9 8 9 8 8 8 10 11 12 12 14 15 15 10 8 13 15 18 17 16 13 11 11 9 6 5 7 9 9 9 9 8 9 9 9 7 6 7 7 7 9 10 11 11 11 8 10 12 14 14 14 13 10 12 11 10 11 11 12 11 12 14 13 9 10 10 8 8 7 7 8 7
1 2 3 5 6 6 6 7 6 6 7 7 7 7 8 8 8 8 8 9 9 9 13 14 8 11 15 18 16 13 18 12 11 9 9 10 11 9 8 6 8 9 10 9 8 8 8 5 4 6 6 8 10 10 12 12 12 12 15 16 15 14 12 14 12 12 11 11 10 10 10 11 10 10 11 14 12 10 9 8 9 8 5 7 7
2 2 2 3 3 3 5 4 5 6 7 6 6 6 6 8 9 9 8 7 7 9 10 10 11 11 13 15 17 15 14 13 14 14 13 12 9 8 9 9 10 9 8 8 7 6 3 4 4 7 7 8 10 11 12 13 12 13 14 15 15 14 14 11 11 10 10 8 8 8 11 11 10 10 12 13 11 10 10 9 9 9 8 7 6
2 3 3 4 4 3 3 3 2 3 4 5 5 5 5 6 7 7 7 7 8 9 9 11 12 12 14 14 16 16 14 12 11 10 10 11 10 9 7 7 8 6 7 8 7 4 5 5 5 8 9 8 9 11 12 13 14 13 13 13 14 13 12 11 11 10 9 8 10 10 12 12 11 10 9 10 11 10 11 10 8 8 6 5 5
1 1 2 3 3 4 5 4 4 4 3 3 4 3 4 5 6 6 7 6 6 7 9 10 10 10 11 15 14 13 10 11 12 12 12 12 13 12 11 10 11 12 9 6 6 3 5 7 7 9 11 11 10 9 12 15 14 14 13 12 12 12 11 11 9 8 9 9 10 11 10 11 11 12 11 8 7 8 7 6 6 5 5 5 3
1 3 6 4 4 5 5 5 5 4 3 3 5 5 5 5 5 5 6 5 6 7 9 9 10 9 11 16 14 14 11 12 11 11 12 12 12 12 12 12 11 11 10 9 5 6 6 8 8 8 12 12 13 12 12 13 13 13 13 12 11 10 9 8 8 8 9 10 9 10 11 10 9 10 11 8 8 6 7 7 8 7 6 3 3
3 5 4 4 5 4 3 5 5 7 6 6 6 4 4 2 5 5 7 5 6 7 8 10 12 10 10 10 13 10 11 11 8 11 11 11 12 11 12 11 11 10 9 8 9 8 8 9 9 9 11 13 11 10 10 11 11 12 12 11 10 10 9 8 7 7 8 10 10 9 10 10 10 10 9 8 8 8 7 7 6 6 6 4 3
6 5 5 5 5 4 4 5 5 5 5 5 5 5 5 6 6 5 6 7 7 6 7 9 8 10 10 11 11 12 12 12 12 13 14 13 14 13 12 11 12 12 12 12 11 10 10 12 13 13 12 12 10 8 7 6 9 11 11 11 10 9 9 9 9 9 10 11 11 11 10 9 9 9 8 8 7 8 7 7 6 4 5 5 5
7 5 5 6 7 7 6 6 5 5 5 5 6 7 7 7 7 7 7 7 7 8 8 7 7 8 10 11 12 11 13 13 13 14 14 13 12 12 11 12 12 12 13 13 12 12 11 13 13 14 14 13 11 11 11 11 9 8 7 9 11 10 8 7 4 3 8 11 12 11 10 10 9 9 9 7 7 7 6 5 5 3 4 5 6
6 5 6 6 7 7 6 7 5 5 6 6 6 7 7 7 6 7 7 6 7 7 7 7 7 8 9 10 10 13 15 15 15 15 14 13 13 13 13 12 12 13 14 13 14 14 13 13 14 14 13 12 11 10 11 11 11 10 10 9 8 7 6 6 5 7 8 9 11 11 10 9 8 9 8 8 7 7 7 4 4 4 4 4 4
7 6 6 6 7 5 4 5 5 6 6 6 6 6 7 6 6 6 6 8 8 7 7 8 8 10 10 11 13 14 14 15 14 14 15 14 13 13 14 13 13 14 14 15 15 15 15 16 14 15 14 12 13 14 13 12 12 11 10 10 8 8 6 6 6 7 7 7 10 11 10 10 9 8 9 9 7 6 6 5 4 4 4 3 3
7 6 6 5 6 6 5 5 5 4 5 5 5 5 5 6 7 7 7 7 8 8 8 8 9 9 9 11 11 13 13 13 14 14 14 14 14 14 13 13 14 15 15 16 16 16 15 14 13 13 13 14 13 12 12 12 12 11 11 11 11 10 9 7 9 8 6 7 8 10 11 11 8 7 6 8 7 6 8 5 3 3 4 3 4
7 7 6 5 5 4 2 4 4 5 4 4 5 7 7 8 7 6 6 7 7 7 8 8 8 9 9 9 10 12 12 12 13 13 13 14 13 13 13 13 14 15 16 15 14 14 13 12 13 15 14 13 12 12 12 11 11 11 11 10 11 11 11 10 8 9 7 7 9 9 10 10 9 8 8 8 7 5 5 3 2 4 5 5 5
7 7 7 5 5 4 2 2 2 3 4 4 5 6 7 7 8 8 8 8 8 8 9 8 8 9 9 10 9 9 10 11 11 11 11 11 11 11 13 14 15 15 15 14 14 14 14 13 14 14 14 14 13 12 11 11 10 9 9 9 9 10 10 11 12 9 9 9 8 9 10 11 10 9 7 7 6 6 6 4 3 4 4 5 4
7 8 7 7 6 6 3 1 2 4 4 3 5 5 6 6 7 7 7 8 9 8 7 8 8 9 8 9 8 9 9 9 10 10 11 11 10 11 12 12 13 13 13 13 14 14 14 14 14 15 13 13 12 11 10 10 9 9 8 8 9 9 9 8 10 8 9 7 9 9 10 9 9 10 7 5 5 6 5 3 4 5 4 4 3
Wind_Speed
9 9 6 4 6 7 7 6 7 6 6 5 7 7 6 5 5 5 4 4 5 5 5 5 4 4 5 5 5 4 4 4 3 4 4 5 4 4 4 4 5 3 4 3 3 5 5 5 6 5 5 6 5 4 5 5 4 4 4 5 5 5 6 4 5 4 1 0 1 2 2 4 3 3 3 3 3 3 3 2 3 3 2 1 1
8 4 5 7 7 7 6 5 6 6 7 6 6 6 6 6 6 5 5 4 5 6 5 4 4 5 5 5 5 5 4 4 3 4 5 4 4 3 4 4 5 4 4 4 4 3 5 6 5 5 5 6 6 6 5 5 5 5 5 6 5 5 4 4 3 4 6 2 2 1 3 3 4 3 5 6 4 2 3 2 0 1 1 1 1
6 5 5 6 7 7 7 6 6 6 6 5 5 5 6 6 6 7 5 5 2 4 5 5 5 5 5 5 5 5 4 4 4 4 4 5 5 4 4 4 3 3 4 4 4 4 5 5 5 5 5 6 6 5 5 6 5 6 6 5 7 6 5 4 5 4 6 5 2 4 4 4 3 3 3 3 3 3 4 2 1 1 1 2 4
7 7 6 6 6 7 7 6 7 6 7 5 6 5 6 5 4 5 5 5 5 3 4 5 5 5 4 4 5 4 4 3 4 4 4 5 5 4 4 5 4 4 4 4 4 4 5 5 5 5 5 6 6 5 5 5 6 6 6 5 5 7 6 5 4 5 5 6 5 5 4 5 2 2 3 3 3 3 3 3 3 4 4 4 5
6 5 4 7 6 6 5 5 7 7 7 6 5 4 4 4 3 4 5 4 4 5 3 4 4 4 4 3 3 3 3 3 2 3 3 4 5 5 4 4 4 3 4 2 3 5 4 4 5 6 5 5 4 5 5 7 6 6 6 6 6 6 5 5 5 4 6 7 5 0 2 2 2 2 3 5 3 4 4 4 4 5 5 4 4
10 9 7 6 6 7 6 6 7 7 7 7 6 5 5 4 4 3 2 5 3 3 5 3 3 3 3 3 3 2 2 2 2 3 4 4 4 4 4 4 3 2 3 4 3 4 5 5 5 6 6 6 6 5 5 6 6 6 7 6 6 5 6 6 4 5 6 6 6 4 1 5 3 2 3 4 7 5 4 4 4 2 4 5 4
8 10 9 7 8 6 6 7 7 7 7 7 7 7 6 5 5 3 2 0 2 4 3 3 2 3 3 3 2 2 2 1 1 2 3 3 4 4 4 4 3 1 1 2 1 1 3 6 5 5 6 6 6 7 6 6 6 7 6 5 5 6 5 5 5 5 5 5 2 2 4 0 2 4 1 2 3 4 7 5 3 1 2 3 4
6 6 6 7 7 6 5 5 7 7 6 6 7 6 7 7 6 5 3 2 2 2 1 1 0 1 2 2 2 2 2 1 1 2 2 3 3 2 3 3 3 2 1 1 1 1 1 1 4 6 5 5 5 4 5 6 5 5 4 5 6 6 6 6 6 5 5 5 4 5 3 4 2 2 2 4 4 1 2 4 8 5 3 2 2
7 7 8 8 7 7 7 6 5 5 6 6 6 6 7 7 6 6 4 3 3 2 0 0 1 2 1 1 1 2 2 2 2 3 3 3 3 4 4 4 4 4 3 3 1 1 2 1 0 1 3 5 7 5 4 2 5 6 5 6 6 6 5 5 6 5 4 5 4 2 5 4 5 6 6 6 9 9 6 3 4 3 3 3 2
8 9 10 8 7 7 8 6 7 7 7 7 6 5 5 6 7 6 4 4 5 5 5 4 3 3 3 2 1 2 2 2 3 6 4 3 3 2 4 4 4 4 4 3 2 2 2 2 2 2 3 4 5 7 9 7 6 4 5 8 8 6 7 7 6 6 6 6 6 6 6 6 7 8 7 7 4 4 5 6 8 4 3 3 1
12 12 10 9 9 8 8 8 7 8 6 7 6 6 6 5 6 5 5 5 7 7 7 7 5 4 3 3 4 3 2 1 1 4 4 3 2 3 2 2 3 5 4 4 4 4 3 3 3 3 3 3 5 6 8 8 9 7 8 8 6 9 9 6 6 6 7 7 5 6 7 8 8 7 7 6 5 8 8 8 7 7 7 6 4
13 13 11 11 12 11 10 10 10 9 10 9 8 7 7 8 7 7 7 8 6 6 8 6 6 6 6 6 5 5 5 7 10 9 8 4 1 2 2 1 1 1 2 3 4 4 5 5 4 4 4 5 5 5 5 5 7 7 8 10 9 7 4 7 8 6 6 6 6 8 7 8 7 7 6 6 8 6 6 7 9 9 8 6 4
14 13 12 12 11 10 11 11 10 11 10 9 8 9 10 10 10 9 8 6 7 10 8 8 8 7 8 7 7 6 6 10 11 10 9 9 7 4 1 3 2 3 3 3 4 4 4 4 5 5 5 6 6 5 5 6 3 2 4 7 7 8 7 6 4 6 6 7 8 8 9 7 7 9 10 10 8 10 7 7 7 7 7 7 5
13 12 12 12 11 10 9 10 11 9 8 9 9 10 10 9 7 7 7 8 9 9 9 9 9 9 8 8 7 8 8 10 11 10 10 9 9 5 2 4 3 3 5 5 5 5 5 5 5 6 5 6 6 6 6 6 5 3 4 5 6 6 5 7 7 7 8 8 7 9 9 7 9 10 10 9 11 10 10 9 7 8 7 5 3
13 12 12 11 10 10 8 9 9 8 8 9 10 10 9 8 9 7 8 8 9 8 8 8 8 8 9 8 8 9 9 15 15 13 11 9 9 6 4 3 3 4 5 4 5 5 6 5 5 6 5 5 6 7 7 7 6 6 6 6 6 6 5 6 7 6 6 7 8 9 7 8 8 6 9 9 9 7 7 8 9 6 6 5 4
12 11 12 10 10 9 10 10 10 9 9 10 11 10 10 9 9 7 7 7 7 6 7 7 8 8 8 8 8 9 9 15 15 16 15 12 8 6 5 4 5 5 5 5 5 5 4 4 5 6 6 6 7 8 7 4 5 6 7 6 5 4 4 0 2 2 3 4 5 6 5 7 7 9 11 10 7 8 9 8 8 7 7 5 3
11 10 10 9 8 8 8 9 9 9 9 10 10 9 9 9 8 6 8 7 8 8 7 6 6 7 8 8 8 7 8 11 14 14 15 14 10 6 6 5 4 5 6 6 5 4 4 4 5 6 6 7 8 9 9 7 5 5 7 7 5 4 6 2 3 6 3 2 4 5 5 6 8 10 11 12 11 10 9 9 6 6 9 6 4
9 9 9 8 8 8 7 8 9 9 9 9 8 7 6 6 7 6 7 7 7 6 5 6 6 6 7 7 7 7 7 9 13 13 13 13 8 6 5 5 6 6 7 6 5 5 5 6 6 6 7 8 8 8 9 9 7 8 7 8 7 7 7 4 1 4 6 8 9 11 10 7 6 7 8 12 14 11 13 11 9 7 7 6 6
7 8 7 7 7 7 7 8 8 8 8 7 7 7 6 5 4 5 5 5 5 4 5 5 5 6 7 6 9 9 7 8 12 12 13 13 10 5 5 4 5 6 6 8 7 6 7 6 7 7 8 9 10 10 11 10 8 8 9 7 8 8 10 5 4 3 3 4 3 7 8 9 9 9 8 9 10 5 6 10 9 9 9 7 6
5 6 6 6 7 6 7 7 7 7 7 6 6 6 3 4 6 5 5 5 5 5 5 6 7 6 5 6 6 6 7 7 9 12 11 11 11 7 5 4 5 7 7 6 8 8 7 7 8 8 9 11 11 10 10 12 9 8 7 8 8 10 4 5 6 6 5 4 5 4 7 6 6 6 7 6 4 2 3 6 9 7 7 7 7
5 6 6 7 7 7 6 6 6 6 6 6 5 6 5 5 5 5 5 5 5 6 7 6 6 7 6 6 6 6 6 7 7 10 10 10 9 7 4 4 5 6 7 7 6 7 8 8 7 9 10 10 11 11 5 10 9 7 7 8 9 5 7 5 7 7 6 6 6 6 6 5 5 5 6 6 4 2 3 3 2 2 5 7 6
5 5 7 7 7 6 6 6 6 6 6 7 8 7 6 6 6 6 6 7 8 8 7 7 6 6 6 6 7 7 7 8 8 9 10 9 9 8 5 5 6 6 6 6 7 7 7 8 8 9 11 9 10 11 10 7 9 6 8 10 6 9 6 6 5 5 5 6 6 6 6 7 6 5 4 4 4 5 5 5 5 6 5 2 5
5 5 5 6 5 5 5 6 5 5 5 5 6 6 5 6 6 6 7 7 7 7 7 6 7 7 7 5 4 6 6 6 8 8 10 10 7 5 4 4 10 6 6 7 8 9 7 7 8 10 12 11 9 10 10 8 7 9 12 11 9 10 8 6 7 7 6 6 6 6 5 5 5 5 5 5 5 5 7 7 6 5 4 4 5
5 5 5 5 5 5 5 4 4 4 4 4 4 5 5 5 5 6 6 6 6 7 6 6 6 7 7 7 6 5 5 5 7 10 9 10 10 7 3 2 5 5 5 6 7 8 9 9 8 12 12 11 10 8 9 8 8 11 12 12 12 9 6 6 7 8 7 7 7 6 5 5 6 7 7 6 6 6 6 7 6 5 4 5 6
5 5 5 5 5 5 6 6 6 6 6 6 7 6 6 6 6 6 6 6 6 6 6 6 6 6 6 7 8 8 8 8 8 10 13 12 11 11 11 9 4 3 5 6 7 8 9 14 16 14 14 14 14 11 7 9 11 10 10 10 9 6 7 7 8 7 8 9 8 7 7 7 7 7 8 8 8 8 8 6 5 5 5 7 7
6 5 5 4 5 4 5 5 5 5 4 4 3 3 3 3 4 4 4 4 3 4 4 4 5 5 4 5 5 6 7 7 8 8 9 9 9 11 13 12 11 9 6 7 10 13 13 14 15 14 13 12 10 8 7 8 6 8 9 9 7 8 7 7 7 9 9 8 8 7 6 6 8 8 10 9 9 9 8 6 7 5 6 7 6
5 4 4 4 4 4 4 4 4 5 4 4 4 4 4 4 4 4 4 4 4 4 4 4 5 5 5 6 5 6 6 7 7 7 7 7 8 9 10 11 13 12 9 6 5 6 8 8 7 9 9 11 10 8 7 5 4 3 3 5 6 6 7 7 8 8 7 7 7 7 6 5 5 6 5 7 8 6 7 7 6 5 6 6 6
4 4 4 3 3 3 4 4 4 4 4 3 5 5 4 3 4 5 4 4 4 5 4 5 5 5 6 6 5 5 6 6 7 8 8 8 8 7 7 8 8 7 8 8 7 8 8 6 7 5 5 5 4 3 2 2 3 3 4 5 5 5 6 7 7 6 7 8 9 10 9 10 10 8 6 6 8 7 7 7 7 5 5 5 4
4 4 4 4 5 4 5 5 4 5 6 6 5 3 3 5 4 5 4 3 4 4 4 5 6 5 5 5 5 6 6 7 7 7 9 10 10 9 9 9 9 9 8 9 9 10 7 6 6 5 4 3 3 4 3 2 2 2 4 5 5 6 7 7 9 9 10 11 12 12 11 10 9 9 9 8 7 7 6 7 6 7 4 4 4
3 3 3 3 3 4 4 4 4 4 4 4 6 7 2 3 4 3 6 6 7 8 6 5 6 5 5 5 5 6 7 8 11 13 13 14 15 16 15 14 13 11 13 15 9 7 5 5 4 5 4 3 3 3 3 3 2 3 3 3 6 6 7 7 8 9 9 10 10 10 11 10 8 8 8 8 6 5 5 7 5 5 5 4 4
3 2 1 1 1 0 0 2 2 2 2 3 4 4 8 4 4 8 8 9 9 9 9 10 10 9 6 6 7 10 13 13 13 14 14 15 16 16 16 16 15 14 12 8 4 3 5 5 5 4 4 4 4 4 3 3 3 3 3 3 5 6 6 6 7 7 7 7 8 8 9 9 10 8 6 6 7 5 5 4 5 5 5 6 5
4 2 2 1 1 1 1 2 3 4 4 4 4 4 5 8 7 3 5 7 7 8 9 9 9 9 11 10 7 6 9 10 12 13 14 16 16 15 15 15 15 15 15 8 5 6 5 6 6 6 4 3 4 3 3 3 3 3 3 4 4 4 6 7 6 8 8 9 10 10 10 9 8 6 5 5 6 5 5 3 3 4 3 3 3
5 4 4 4 4 4 5 5 5 4 5 5 6 5 5 5 7 10 3 2 7 8 8 9 9 9 10 11 10 9 9 11 13 13 13 14 15 15 15 15 13 13 9 3 4 5 4 4 6 5 4 4 4 3 3 3 4 3 3 4 5 4 3 4 4 6 6 8 7 7 8 8 6 6 6 6 6 5 4 4 3 3 4 3 2
3 3 3 3 4 5 4 4 4 4 4 4 4 5 4 4 5 5 8 8 2 3 6 7 9 9 9 9 9 10 10 10 11 12 12 12 12 13 12 11 11 8 6 5 3 4 5 5 5 5 5 4 4 2 2 4 4 4 3 4 3 4 6 7 7 4 4 6 6 7 7 7 6 7 6 6 4 5 5 4 4 4 4 3 3
4 5 6 5 4 4 5 4 5 5 5 5 5 5 5 5 4 5 6 7 8 8 9 9 9 12 12 9 10 11 12 13 13 12 12 11 11 11 9 6 5 2 1 4 5 5 6 5 6 5 5 4 4 3 3 5 5 4 5 6 7 6 5 4 6 7 6 5 4 4 5 6 6 5 6 7 6 6 5 5 4 4 4 3 2
4 4 4 5 5 5 5 5 4 5 5 5 4 4 5 4 5 5 5 5 5 6 7 7 7 9 13 11 12 13 14 14 14 13 11 10 10 7 3 4 4 4 3 4 4 5 5 5 4 4 3 3 3 3 4 5 5 6 6 8 8 8 8 7 4 5 6 6 4 4 5 4 4 4 4 4 5 6 5 4 4 3 3 3 2
4 4 5 4 4 4 4 4 4 5 4 4 5 5 5 5 5 5 5 6 6 7 6 8 8 8 6 5 9 13 14 14 13 11 9 9 7 3 2 3 4 5 5 5 5 5 5 5 4 3 3 4 4 4 5 5 6 6 5 6 6 7 6 7 7 6 6 5 4 3 4 4 4 5 5 5 3 3 3 3 4 3 3 3 3
1 2 2 3 4 4 4 4 4 4 5 5 4 4 5 5 5 5 5 5 5 5 7 7 5 6 8 9 11 8 10 10 9 8 8 8 6 4 4 3 4 5 6 5 5 4 4 3 2 3 3 4 5 5 6 6 6 6 6 7 7 7 9 8 8 7 6 6 4 2 3 3 3 4 4 6 6 4 3 3 3 3 2 2 2
1 1 2 3 3 3 3 3 4 4 4 4 4 4 4 5 5 5 4 3 4 4 5 6 6 6 7 8 8 9 9 6 7 7 6 5 3 3 3 3 4 4 4 4 4 3 1 1 2 2 2 4 5 5 6 7 6 5 6 7 7 7 7 5 6 6 5 4 3 2 2 3 3 4 5 6 6 5 4 4 3 3 3 2 2
1 2 3 3 2 2 3 2 2 3 3 3 3 3 3 4 4 4 3 3 4 4 5 6 6 7 8 7 9 8 7 6 6 5 5 6 5 5 3 3 4 3 3 4 4 2 2 3 3 3 4 4 4 5 5 6 6 6 6 7 7 7 6 6 6 5 4 3 3 3 3 5 5 5 5 5 5 4 5 4 3 3 2 2 2
0 0 2 3 2 3 3 3 3 3 2 2 2 2 3 3 3 3 4 3 3 4 5 6 5 6 6 9 11 9 5 5 5 6 6 6 6 6 6 5 5 6 5 3 3 1 2 4 4 5 5 6 5 4 4 5 7 7 7 6 6 6 6 6 5 3 3 3 3 4 4 5 5 6 5 4 3 3 2 2 1 1 2 2 1
0 2 4 3 3 3 3 4 3 3 3 2 3 3 3 3 3 3 3 3 4 4 5 5 5 5 7 12 10 10 6 6 6 6 6 6 6 6 5 5 6 6 5 4 2 2 3 4 4 4 6 6 6 5 6 7 6 6 6 6 6 5 5 5 4 3 4 4 4 5 4 5 4 4 5 4 3 3 3 2 2 2 1 0 0
2 4 3 3 4 3 3 3 3 4 4 4 4 3 3 1 3 3 3 3 4 4 4 5 6 6 6 7 8 8 5 6 5 6 6 6 7 5 6 5 5 5 5 4 5 4 4 5 5 4 5 6 5 5 5 5 5 4 4 4 4 5 5 4 3 3 3 4 4 5 5 5 5 5 4 3 3 3 3 3 2 2 1 0 1
4 3 3 3 3 3 3 3 4 3 3 3 4 4 3 3 3 3 3 4 4 3 4 5 4 5 5 6 6 7 6 7 6 7 7 7 7 7 6 5 5 5 6 5 5 4 5 6 6 6 6 6 5 4 4 3 3 5 5 5 5 5 5 4 4 4 4 4 5 6 5 5 5 4 3 3 3 3 2 2 1 1 1 1 1
4 3 4 4 4 4 4 3 3 3 3 3 3 3 4 3 4 4 4 4 4 5 5 4 4 4 5 5 7 6 7 7 7 7 7 7 6 6 6 5 5 6 5 5 5 6 5 6 7 7 7 5 5 5 5 4 4 4 3 4 5 5 4 3 2 1 3 6 6 6 5 5 4 3 3 2 3 3 2 2 1 1 1 2 1
4 4 4 4 4 4 4 4 3 3 3 3 3 4 4 4 4 4 4 3 4 3 4 4 3 4 5 5 5 7 7 7 7 7 7 7 7 6 6 6 6 6 6 6 6 7 7 6 6 6 6 5 5 5 5 5 5 6 6 5 4 4 3 2 2 4 4 5 6 5 5 4 3 2 3 3 2 2 2 1 1 0 1 1 2
5 4 4 4 5 4 3 3 2 3 3 3 3 3 4 3 3 3 3 4 4 4 4 4 4 5 5 6 6 7 6 7 6 7 7 7 7 7 7 6 6 7 7 7 7 7 7 7 7 7 7 6 7 8 6 6 6 5 5 4 3 3 2 2 2 3 3 4 6 6 4 4 4 3 3 3 2 2 2 1 2 2 1 1 1
5 4 4 4 4 4 3 3 3 2 2 3 3 3 2 3 3 3 3 3 4 4 4 4 5 4 5 5 6 6 6 6 6 6 7 7 7 8 7 7 7 7 7 8 8 8 7 7 7 6 6 6 6 6 6 6 5 5 5 5 5 4 5 4 4 3 3 3 4 6 6 5 3 3 2 3 3 2 3 2 1 1 1 1 1
5 4 4 4 4 3 2 2 2 2 2 2 3 3 3 3 3 3 3 3 4 4 4 4 4 4 4 4 5 6 6 6 6 6 6 6 7 6 6 7 7 7 7 7 7 7 7 6 6 7 7 6 6 5 5 5 5 4 5 5 6 8 9 7 5 4 4 3 4 4 5 4 5 4 3 4 3 2 2 1 1 2 1 1 1
5 5 5 4 4 3 1 0 1 2 2 2 3 3 3 4 4 4 4 3 4 4 4 4 4 4 4 5 5 4 5 5 5 5 5 5 5 5 6 7 7 7 7 7 6 6 6 6 7 7 7 7 6 6 5 5 4 4 4 4 6 7 7 9 9 7 4 3 3 3 4 4 4 5 4 4 3 3 3 2 1 1 1 1 1
4 5 5 4 4 4 2 0 1 2 2 1 2 2 3 3 3 3 3 4 4 4 4 3 4 4 4 4 4 4 4 5 5 5 5 6 5 5 6 6 6 6 7 7 7 7 7 7 7 7 7 6 6 5 5 5 4 4 5 6 6 7 6 6 5 6 6 5 4 3 3 5 5 5 4 3 2 3 2 1 1 2 1 0 0
Wind_Direction
134 167 154 123 122 124 118 113 113 115 114 131 141 143 140 135 140 146 129 134 136 127 122 122 113 113 110 102 103 95 96 85 82 105 93 85 58 80 74 93 106 98 112 90 108 146 151 147 162 144 141 133 138 130 127 137 124 106 120 130 130 138 138 120 125 126 161 261 302 218 151 139 173 196 176 184 202 213 208 192 193 192 194 194 128
162 124 124 143 138 114 108 111 123 129 130 138 143 137 132 135 142 136 138 150 140 134 127 124 115 112 105 106 102 97 88 82 71 103 105 93 74 67 81 82 95 96 99 102 101 125 146 147 166 145 153 141 147 153 143 140 148 136 154 163 163 168 186 110 123 139 180 202 227 46 139 176 179 156 184 180 196 181 191 179 213 234 118 149 59
140 134 137 135 124 122 128 132 134 132 123 120 116 117 131 142 152 144 145 139 117 127 135 124 122 110 97 100 105 95 93 84 62 91 96 107 100 71 88 98 90 111 110 113 113 122 125 147 163 146 147 148 159 154 153 157 157 169 173 178 177 183 192 168 127 135 172 203 197 160 182 159 164 171 175 161 159 167 155 144 132 98 87 72 82
146 145 140 123 123 130 131 135 127 118 107 110 121 132 136 142 148 136 137 133 121 102 109 121 118 117 111 101 107 117 100 96 81 90 116 116 106 103 88 93 92 67 73 91 104 121 143 136 154 150 152 161 158 155 156 159 176 184 178 182 180 187 192 193 163 132 174 163 217 189 185 158 131 93 105 84 101 81 110 108 96 85 80 85 81
83 65 83 100 103 104 99 107 112 106 106 104 98 99 111 122 122 130 125 117 127 113 100 107 104 109 123 132 122 123 139 139 127 113 114 121 126 125 101 88 98 115 119 138 133 129 139 150 154 143 144 154 156 163 165 181 189 183 189 180 189 185 186 192 177 137 146 183 174 136 122 88 111 146 172 134 93 80 65 75 91 108 95 80 85
113 111 112 132 130 117 110 96 95 102 98 87 83 73 65 60 62 51 81 134 127 129 137 124 130 119 123 148 148 140 140 153 157 165 157 143 122 122 123 117 130 143 141 125 163 155 141 142 156 148 150 171 193 183 175 190 181 197 198 193 176 167 184 192 176 153 164 180 166 147 90 152 126 130 198 158 130 110 88 88 73 40 104 89 55
119 136 155 128 95 74 93 104 106 98 92 93 83 68 55 51 49 46 63 72 142 143 143 135 152 144 160 152 155 143 133 131 145 144 139 139 141 130 129 120 120 98 359 63 65 7 135 142 153 164 166 175 175 185 180 178 188 201 200 184 162 155 169 182 171 161 161 144 128 154 143 357 142 158 132 134 106 142 143 131 87 35 29 86 98
80 78 75 79 74 65 45 68 89 96 100 89 77 81 73 55 41 23 25 53 50 31 12 358 228 150 174 159 139 137 125 110 101 100 109 139 138 140 144 154 137 128 90 30 47 10 344 128 154 168 170 169 171 183 180 178 171 187 178 162 162 162 172 168 168 164 156 162 163 167 171 147 102 41 92 130 129 44 206 143 156 164 148 51 42
77 71 66 68 78 89 84 77 77 90 94 94 83 75 83 81 69 50 21 24 32 32 28 110 266 259 269 143 135 138 154 163 166 162 145 145 157 161 168 160 164 165 169 176 102 359 349 352 325 266 209 180 170 163 181 185 172 175 185 169 167 169 162 170 174 165 160 162 166 106 152 157 167 143 156 180 192 186 167 128 120 121 135 117 86
72 69 69 65 59 65 72 67 79 82 76 74 74 77 82 90 84 70 39 27 47 42 47 43 23 331 296 280 182 176 192 181 170 166 164 154 166 150 146 158 160 163 168 175 229 263 262 297 299 239 229 215 201 189 186 197 204 211 189 172 169 168 174 172 179 186 173 181 193 171 178 199 187 186 181 202 154 92 126 150 138 161 123 95 18
64 58 48 44 46 50 58 60 57 63 69 74 71 60 52 53 65 67 50 37 45 42 43 41 32 30 29 351 328 307 304 333 120 165 166 139 132 146 157 205 169 159 167 177 193 214 232 216 219 248 236 236 214 215 212 209 208 210 188 209 201 175 168 180 201 180 186 202 183 185 200 203 206 190 196 168 175 174 173 165 144 153 170 156 178
68 65 59 55 51 47 42 46 55 53 49 47 49 53 55 51 43 36 30 30 33 44 40 29 31 28 34 38 34 9 1 10 7 4 12 16 85 130 122 126 120 7 266 218 226 201 203 210 222 209 203 214 216 216 222 224 219 219 202 195 208 235 242 187 181 188 203 196 184 208 197 211 195 181 184 160 174 169 172 158 162 169 163 188 171
66 63 59 60 58 53 55 52 42 47 49 48 46 54 55 51 40 34 31 24 43 45 33 35 28 24 32 30 24 21 34 20 32 36 37 36 15 331 247 156 158 193 190 220 247 270 277 246 230 214 210 201 196 198 204 218 214 194 196 204 210 210 218 235 243 217 194 199 203 207 206 197 181 209 195 184 159 158 157 170 173 171 175 176 172
66 65 63 59 58 56 54 61 55 45 44 50 50 51 51 50 45 39 39 39 46 41 35 35 29 29 28 29 24 25 30 17 36 39 39 39 36 42 348 310 279 222 202 196 210 222 225 230 254 259 227 207 197 186 187 192 193 176 177 185 201 202 215 224 228 223 196 208 207 216 222 177 204 205 194 160 160 171 167 181 163 161 166 148 124
66 63 64 60 60 61 57 58 56 47 43 47 51 49 44 38 37 31 38 42 42 41 33 35 30 28 26 28 37 33 24 16 24 29 32 31 26 28 18 3 329 303 296 269 240 225 217 218 224 249 269 246 230 205 194 192 182 193 195 214 209 201 200 206 209 208 206 209 214 226 219 202 218 181 159 184 187 168 171 154 152 128 108 99 85
70 64 63 59 57 58 64 65 62 56 48 47 48 44 40 34 28 17 34 38 39 43 40 42 36 31 28 32 41 35 24 24 26 24 19 16 14 26 15 9 345 329 312 299 287 282 286 261 237 242 247 251 254 230 226 193 185 200 211 218 215 221 234 207 342 295 257 259 258 256 246 213 195 172 172 165 127 118 101 93 93 113 120 117 126
65 66 67 64 58 54 56 62 62 59 56 55 49 42 38 31 30 24 38 34 34 32 32 36 33 36 32 33 39 37 28 24 28 25 22 12 11 13 11 1 346 330 306 301 297 280 257 240 239 252 251 250 245 220 212 176 206 223 234 232 225 216 243 225 48 40 24 326 310 286 247 188 167 161 158 150 147 141 118 108 133 143 130 142 167
56 60 64 61 59 56 56 64 66 59 56 56 53 46 38 35 31 25 45 37 36 24 19 32 36 39 39 35 32 35 26 20 27 25 26 20 13 3 351 349 334 327 314 307 302 292 264 244 231 234 244 254 258 221 193 177 201 217 220 234 232 236 254 223 101 41 76 84 88 82 69 66 90 102 125 142 146 145 141 164 166 154 164 164 156
51 59 55 56 55 53 52 56 62 68 66 59 56 51 44 41 26 25 34 44 50 39 37 36 29 29 30 32 34 37 20 11 18 23 22 17 15 5 359 347 332 318 319 313 311 301 297 285 256 235 226 235 234 220 193 185 208 211 221 222 235 234 240 189 167 126 79 77 40 87 82 101 125 147 159 155 148 132 126 144 162 170 169 169 139
81 75 71 66 65 57 55 56 53 55 62 67 64 60 46 41 32 30 27 32 29 28 26 32 31 27 23 29 29 36 27 11 9 11 24 25 18 7 354 351 331 319 316 308 309 306 302 298 294 281 262 258 251 231 201 193 200 208 203 215 221 240 196 142 172 168 163 138 134 111 119 124 114 125 139 148 126 81 201 164 177 190 159 151 152
85 84 80 72 67 63 55 58 60 55 53 56 55 52 40 36 33 37 35 27 33 28 27 20 19 11 11 16 19 19 20 14 8 12 15 20 21 20 6 350 325 311 305 299 288 290 296 295 294 291 282 276 276 274 231 199 212 212 212 211 221 189 133 153 175 170 144 155 148 137 127 114 114 116 144 150 136 90 77 67 63 56 131 158 126
72 73 71 69 65 60 57 49 46 47 42 42 46 40 28 29 29 28 22 22 22 21 17 16 10 6 3 5 9 1 3 6 357 356 8 15 18 21 16 347 333 313 303 294 291 278 270 282 285 282 282 274 270 272 263 212 199 221 227 230 215 152 157 165 150 135 143 155 152 151 148 145 138 131 105 73 50 51 52 52 45 34 17 56 153
71 74 73 72 70 69 65 61 58 56 53 50 53 44 24 27 25 28 29 26 25 16 12 4 2 355 349 355 357 351 350 347 352 345 347 356 14 43 22 347 333 330 322 309 303 294 285 274 271 275 278 276 263 260 261 247 191 218 226 234 228 188 155 161 162 166 165 156 154 166 160 146 129 106 97 79 62 64 61 57 53 50 41 354 16
72 70 64 60 56 51 50 53 58 60 65 66 66 55 32 26 29 27 26 28 20 12 1 359 357 355 346 335 341 342 340 339 335 338 338 340 341 352 16 353 316 318 309 290 292 294 293 288 288 294 296 293 286 260 249 234 222 222 216 220 225 210 177 163 180 185 178 166 174 170 153 139 129 131 126 120 110 100 89 80 71 71 86 66 59
80 72 63 52 45 35 32 29 26 25 24 30 32 25 19 18 17 8 17 16 18 12 351 357 353 341 343 335 332 334 338 339 334 332 332 334 337 336 336 338 328 270 291 293 285 285 292 301 306 306 305 302 296 289 253 230 226 220 215 207 205 196 193 183 180 171 174 186 184 164 160 159 150 138 133 124 119 109 97 79 87 99 99 80 66
70 67 62 56 46 40 42 26 26 24 24 31 41 44 40 20 14 354 20 10 5 356 335 337 330 325 315 314 312 312 320 324 322 322 325 328 328 328 329 327 326 323 284 264 271 278 284 287 290 294 294 290 285 270 263 262 240 218 206 191 196 194 192 184 173 176 189 184 174 170 152 138 142 144 140 135 128 127 125 125 120 107 109 102 83
81 75 69 62 47 48 49 33 19 15 16 10 16 23 19 24 4 350 352 350 347 331 331 326 321 316 314 311 308 311 314 316 314 314 317 318 317 321 328 326 326 328 331 317 300 286 280 279 281 286 283 284 281 274 272 258 237 201 170 187 198 195 187 188 185 177 154 131 115 103 102 84 70 82 107 117 114 118 124 133 133 142 122 98 105
83 75 64 58 54 55 51 36 32 12 4 14 8 359 2 24 5 333 328 321 319 315 307 304 296 298 299 299 305 311 304 306 303 302 306 310 310 310 315 312 310 314 313 313 315 311 304 291 285 275 284 292 289 312 306 281 241 193 189 187 184 168 155 134 118 128 131 133 125 126 127 137 136 138 131 130 139 143 150 144 142 132 109 106 97
58 49 32 36 23 21 26 21 12 9 356 354 347 318 300 333 325 310 276 205 208 241 265 263 269 262 252 268 286 291 294 284 275 268 272 283 291 301 309 309 308 302 288 294 305 303 294 288 284 278 257 257 266 255 261 193 260 226 189 171 159 154 152 160 163 158 151 144 150 150 151 143 139 139 144 149 155 153 161 128 125 127 103 93 134
62 42 41 43 13 14 7 0 354 6 360 349 340 333 278 247 246 230 293 292 260 246 216 238 256 269 264 262 239 257 270 267 272 278 282 284 285 283 282 283 281 281 289 296 289 275 270 266 261 255 253 231 235 229 223 200 179 181 193 170 164 166 170 176 169 160 161 159 153 148 147 143 141 148 149 150 142 133 133 132 127 125 126 126 123
103 99 89 91 143 135 47 354 3 359 351 350 344 335 328 336 233 253 242 260 276 283 286 274 277 279 266 272 268 249 254 264 274 279 283 284 282 286 290 294 294 289 284 298 289 231 250 251 257 250 243 221 221 230 201 202 190 180 188 181 184 177 173 170 163 152 150 140 140 137 140 145 149 151 147 143 138 127 109 80 112 116 128 123 130
124 140 147 138 105 82 63 42 29 3 356 2 3 357 355 334 334 190 266 292 281 283 288 292 292 291 290 282 281 288 280 278 279 282 284 286 290 291 290 290 291 292 295 273 242 252 239 247 254 251 235 224 237 212 191 202 196 182 168 171 184 186 178 171 162 160 153 151 149 149 149 149 145 139 135 131 127 133 127 124 125 120 103 117 164
65 47 36 25 25 26 24 18 8 13 360 352 351 7 353 354 336 332 2 275 285 293 287 278 276 276 276 280 279 273 275 281 283 284 284 285 289 291 292 289 285 284 286 227 222 249 249 248 258 269 253 248 250 215 211 202 190 182 182 186 180 170 123 96 119 147 148 136 136 143 141 135 127 129 125 128 133 133 133 127 130 119 127 141 155
89 80 55 40 27 18 16 17 9 1 351 348 356 346 343 340 330 323 329 347 15 242 247 277 301 313 315 319 318 317 310 304 301 298 295 289 286 288 294 293 293 281 226 229 221 242 256 265 261 262 259 249 238 205 179 168 145 137 109 87 68 77 104 113 105 102 107 127 139 137 131 134 135 124 123 125 119 120 122 126 125 129 155 165 166
47 32 34 33 31 13 5 17 13 0 2 3 356 350 340 336 337 344 350 345 337 338 340 333 337 343 335 330 328 329 324 322 320 316 311 304 303 299 297 304 313 347 297 254 253 251 251 251 255 258 247 241 211 175 163 151 143 136 133 120 109 98 89 99 113 113 99 75 85 108 122 127 128 126 131 128 124 131 133 132 149 154 155 160 165
33 23 14 16 10 3 360 6 9 9 2 349 346 331 332 340 346 341 337 331 329 333 329 330 324 323 323 327 336 334 328 324 321 319 316 316 321 331 320 310 315 312 299 284 266 270 265 263 255 253 217 209 174 162 152 145 140 137 142 139 133 132 125 112 89 82 94 109 104 94 88 86 98 109 103 112 143 143 134 147 154 161 149 156 177
16 9 8 0 1 352 344 358 7 9 3 358 354 351 353 346 340 340 339 333 335 330 321 320 330 332 332 341 346 333 330 327 321 321 329 335 343 28 300 309 306 301 297 287 273 259 255 247 230 225 190 174 159 147 134 129 127 120 114 110 118 114 110 109 113 119 115 107 97 116 130 126 123 133 131 127 119 117 125 132 137 151 162 162 157
288 339 355 342 355 350 353 356 360 9 12 7 1 0 343 342 338 328 329 332 329 322 322 325 330 331 336 332 337 336 324 317 329 353 354 352 355 344 326 306 291 288 290 289 285 273 270 278 176 169 171 150 143 138 130 124 121 123 124 118 101 88 91 101 109 108 104 108 118 131 134 133 125 119 116 123 127 125 139 150 150 147 137 158 192
319 358 36 3 359 345 335 344 4 20 10 13 358 1 351 350 347 343 343 332 322 323 319 314 325 339 337 330 330 333 337 353 5 2 343 337 328 340 334 332 324 323 325 313 320 321 309 77 69 77 110 120 123 125 124 121 117 116 113 105 100 105 104 102 96 101 110 115 106 130 134 134 130 120 132 132 139 146 157 161 157 150 154 181 199
343 2 14 14 33 13 356 345 17 39 15 7 349 352 349 6 356 336 330 327 330 329 328 328 336 344 333 334 339 344 356 350 347 337 333 335 330 332 342 351 345 321 307 310 308 272 122 75 78 87 82 72 76 92 101 108 106 101 95 96 104 103 101 104 105 105 112 106 115 138 145 130 124 127 131 134 145 148 153 165 166 175 184 192 189
106 336 31 36 25 23 13 12 14 23 1 335 310 332 335 334 335 332 332 331 330 329 327 326 334 332 331 339 348 0 14 3 346 343 344 342 343 345 354 1 348 332 328 341 335 326 82 92 74 79 82 77 64 58 76 91 91 89 91 93 93 97 94 84 85 87 91 117 142 138 125 128 136 135 133 138 141 148 140 121 149 181 193 208 185
116 59 45 33 31 44 27 3 355 358 1 334 339 339 332 334 346 1 344 333 333 334 333 332 339 336 338 353 359 4 23 21 12 4 356 0 3 1 356 356 349 337 333 333 322 50 73 76 78 81 91 92 88 82 72 73 79 89 94 97 99 97 84 82 89 122 147 143 141 139 138 136 132 122 135 144 135 120 123 150 166 176 191 195 111
134 97 106 75 57 43 27 343 355 6 355 352 341 324 311 319 358 352 352 329 338 349 349 341 335 340 342 351 358 7 23 16 15 8 8 5 8 6 5 354 349 348 346 0 15 45 73 80 76 69 83 86 87 92 96 102 106 103 100 100 106 112 111 109 116 150 154 130 118 124 129 127 127 131 125 120 118 129 148 157 166 156 148 145 71
107 99 79 74 69 55 49 37 26 6 346 323 310 307 329 359 2 12 20 1 351 354 345 332 333 341 351 360 8 19 23 19 17 17 16 14 13 9 8 3 358 6 14 18 23 37 70 81 81 70 68 72 68 70 79 92 118 124 123 120 117 121 131 143 163 168 157 138 131 131 128 126 122 109 113 131 148 133 138 110 85 80 102 116 106
95 92 71 59 48 45 22 18 17 4 356 350 342 341 5 11 12 8 19 19 357 352 347 341 342 357 8 14 16 20 22 22 23 26 26 20 16 11 8 11 15 20 21 29 27 37 45 63 81 82 77 63 59 60 57 50 52 75 93 118 134 137 144 152 149 155 151 133 132 129 129 125 122 118 125 152 136 119 104 110 129 158 142 137 117
117 111 89 74 57 38 23 14 356 8 2 357 360 13 12 11 13 17 22 26 13 3 353 352 353 10 21 21 20 28 31 33 34 32 28 27 24 22 23 24 31 34 35 34 38 42 37 33 48 60 65 61 55 53 48 47 44 42 47 53 61 69 76 103 157 134 128 128 128 119 113 100 104 116 128 119 101 93 113 133 151 147 85 85 87
122 119 113 87 78 59 31 2 12 3 354 360 17 19 11 7 12 21 38 36 22 7 1 2 10 19 23 31 35 37 35 38 36 35 34 31 29 28 29 29 32 37 36 35 35 42 45 44 49 59 66 60 65 67 63 60 61 59 58 64 71 78 74 67 60 69 92 108 117 114 116 116 122 124 122 120 113 116 120 107 102 104 98 63 68
129 125 120 114 93 69 36 40 37 19 4 2 5 8 20 25 34 36 34 33 31 22 14 14 19 18 30 33 35 42 42 43 42 40 39 38 38 39 37 36 39 41 44 41 37 38 37 35 31 46 52 53 56 56 63 65 64 64 66 64 64 67 82 90 87 78 74 103 110 120 124 120 123 131 147 127 108 123 112 109 106 84 69 57 47
143 139 130 118 110 102 59 356 52 93 16 14 8 31 34 33 33 31 30 41 41 35 32 28 17 20 31 33 34 42 45 45 43 40 40 41 43 44 46 44 43 40 43 43 37 40 38 38 43 47 49 47 45 46 49 54 58 53 55 55 48 51 64 74 90 95 98 94 104 105 104 107 110 105 94 91 95 81 88 71 53 70 63 51 69
156 158 150 145 125 121 99 310 282 95 83 57 52 50 41 42 37 27 27 34 42 43 40 37 33 30 31 38 34 33 36 39 37 37 37 40 39 39 47 46 43 39 40 37 33 30 32 35 40 44 45 44 43 44 47 51 55 58 62 64 62 64 64 69 71 81 93 90 88 96 104 105 101 87 74 75 85 92 83 64 62 73 79 48 51
168 162 162 163 153 127 107 199 197 111 136 116 105 90 69 58 49 36 27 33 41 44 44 47 47 46 43 43 41 40 41 45 43 41 40 42 38 33 38 48 47 45 40 38 36 34 28 26 29 35 36 37 37 35 37 37 43 53 64 75 74 72 66 61 68 67 81 103 104 103 109 118 118 108 94 90 119 90 88 89 79 79 78 87 57